Date String (YYYY-MM-DD hh:mm:ss) UTC,Instrument flags,Ambient pressure (hPa),Sample flow (lpm),Bypass flow (lpm),Sample temperature (°C),Ambient temperature (°C),ASC tube jacket temperature (°C),LED temperature (°C),Box temperature (°C),Sample RH (%),Span deviation,Mass concentration (μg/m³),Mass concentration (μg/m³),Mass concentration (μg/m³)
DateTimeUTC,F1_M11,P_M11,Q1_M11,Q2_M11,T1_M11,T2_M11,T3_M11,T4_M11,T5_M11,U1_M11,ZSPAN_M11,X0_M11,X2_M11,X1_M11
2022-07-27 06:00:00,,0831.2,5.01,0.00,31.3,27.8,00.0,39.4,32.0,34.3,0000.0,0009.68,0005.64,0004.99
2022-07-27 06:01:00,,0831.2,4.98,0.00,31.2,27.9,00.0,39.4,32.0,34.3,0000.0,0010.34,0005.64,0004.99
2022-07-27 06:02:00,,0831.1,5.01,0.00,31.2,28.1,00.0,39.4,32.0,34.5,0000.0,0010.98,0005.68,0004.97
2022-07-27 06:03:00,,0831.0,5.00,0.00,31.2,28.2,00.0,39.4,32.0,34.4,0000.0,0011.15,0005.67,0004.96
2022-07-27 06:04:00,,0831.0,5.00,0.00,31.2,28.3,00.0,39.4,32.0,34.0,0000.0,0011.17,0005.65,0004.93
2022-07-27 06:05:00,,0831.0,5.00,0.00,31.1,28.5,00.0,39.5,32.0,33.9,0000.0,0010.90,0005.62,0004.88
2022-07-27 06:06:00,,0831.0,4.99,0.00,31.1,28.6,00.0,39.5,32.1,33.8,0000.0,0010.67,0005.58,0004.84
2022-07-27 06:07:00,,0830.9,5.00,0.00,31.1,28.7,00.0,39.5,32.1,33.5,0000.0,0010.54,0005.50,0004.78
2022-07-27 06:08:00,,0830.9,5.00,0.00,31.1,28.7,00.0,39.5,32.1,33.2,0000.0,0010.38,0005.41,0004.73
2022-07-27 06:09:00,,0830.9,5.01,0.00,31.1,28.8,00.0,39.5,32.2,33.0,0000.0,0010.22,0005.31,0004.67
2022-07-27 06:10:00,,0830.9,5.00,0.00,31.1,28.9,00.0,39.5,32.2,32.9,0000.0,0010.15,0005.23,0004.61
2022-07-27 06:11:00,,0830.9,4.99,0.00,31.0,28.9,00.0,39.5,32.2,33.2,0000.0,0010.20,0005.19,0004.55
2022-07-27 06:12:00,,0830.9,5.02,0.00,31.0,28.5,00.0,39.5,32.2,34.2,0000.0,0009.47,0005.15,0004.53
2022-07-27 06:13:00,,0830.8,5.00,0.00,31.0,27.7,00.0,39.4,32.0,35.2,0000.0,0008.89,0005.13,0004.56
2022-07-27 06:14:00,,0830.9,5.01,0.00,31.1,27.1,00.0,39.3,32.0,35.3,0000.0,0008.75,0005.13,0004.57
2022-07-27 06:15:00,,0830.9,4.97,0.00,31.3,27.0,00.0,39.3,32.0,34.6,0000.0,0008.68,0005.13,0004.59
2022-07-27 06:16:00,,0830.9,5.01,0.00,31.3,27.1,00.0,39.3,32.0,34.4,0000.0,0008.65,0005.11,0004.61
2022-07-27 06:17:00,,0830.8,4.99,0.00,31.4,27.3,00.0,39.3,31.9,34.8,0000.0,0008.76,0005.11,0004.64
2022-07-27 06:18:00,,0830.8,5.00,0.00,31.4,27.5,00.0,39.3,31.9,35.2,0000.0,0009.20,0005.17,0004.68
2022-07-27 06:19:00,,0830.8,5.01,0.00,31.6,27.7,00.0,39.3,32.0,34.9,0000.0,0009.81,0005.23,0004.74
2022-07-27 06:20:00,,0830.8,5.00,0.00,31.7,27.8,00.0,39.4,32.1,34.7,0000.0,0010.16,0005.32,0004.79
2022-07-27 06:21:00,,0830.7,5.01,0.00,31.8,28.0,00.0,39.4,32.1,34.7,0000.0,0010.26,0005.41,0004.85
2022-07-27 06:22:00,,0830.8,5.01,0.00,31.8,28.1,00.0,39.5,32.1,34.7,0000.0,0010.08,0005.51,0004.92
2022-07-27 06:23:00,,0830.7,5.00,0.00,31.8,28.3,00.0,39.5,32.1,34.1,0000.0,0010.09,0005.57,0004.97
2022-07-27 06:24:00,,0830.6,5.01,0.00,31.8,28.4,00.0,39.6,32.1,33.5,0000.0,0010.15,0005.53,0004.94
2022-07-27 06:25:00,,0830.6,5.00,0.00,31.8,28.5,00.0,39.6,32.1,33.2,0000.0,0010.19,0005.48,0004.90
2022-07-27 06:26:00,,0830.6,5.00,0.00,31.8,28.6,00.0,39.7,32.2,33.3,0000.0,0010.23,0005.48,0004.87
2022-07-27 06:27:00,,0830.5,4.99,0.00,31.7,28.6,00.0,39.7,32.2,33.8,0000.0,0010.20,0005.49,0004.86
2022-07-27 06:28:00,,0830.5,4.99,0.00,31.7,28.7,00.0,39.7,32.2,34.0,0000.0,0009.96,0005.51,0004.87
2022-07-27 06:29:00,,0830.5,5.00,0.00,31.7,28.8,00.0,39.8,32.2,33.7,0000.0,0009.57,0005.51,0004.87
2022-07-27 06:30:00,,0830.4,5.00,0.00,31.6,28.8,00.0,39.8,32.3,33.9,0000.0,0008.97,0005.48,0004.87
2022-07-27 06:31:00,,0830.4,5.00,0.00,31.6,28.9,00.0,39.8,32.3,33.9,0000.0,0008.88,0005.49,0004.89
2022-07-27 06:32:00,,0830.4,5.00,0.00,31.6,28.9,00.0,39.8,32.3,33.4,0000.0,0009.01,0005.48,0004.90
2022-07-27 06:33:00,,0830.3,5.00,0.00,31.5,29.0,00.0,39.8,32.3,33.9,0000.0,0008.96,0005.48,0004.92
2022-07-27 06:34:00,,0830.3,5.00,0.00,31.5,29.0,00.0,39.8,32.3,33.9,0000.0,0008.86,0005.51,0004.97
2022-07-27 06:35:00,,0830.2,5.02,0.00,31.5,28.5,00.0,39.8,32.3,34.1,0000.0,0008.98,0005.64,0005.07
2022-07-27 06:36:00,,0830.2,4.99,0.00,31.4,27.7,00.0,39.7,32.1,34.5,0000.0,0008.98,0005.75,0005.19
2022-07-27 06:37:00,,0830.1,5.00,0.00,31.3,27.2,00.0,39.6,32.0,35.2,0000.0,0009.07,0005.86,0005.29
2022-07-27 06:38:00,,0830.1,5.01,0.00,31.3,27.1,00.0,39.6,32.0,35.2,0000.0,0009.16,0005.93,0005.35
2022-07-27 06:39:00,,0830.1,4.98,0.00,31.5,27.1,00.0,39.6,32.1,34.8,0000.0,0009.25,0005.97,0005.39
2022-07-27 06:40:00,,0830.1,5.01,0.00,31.7,27.3,00.0,39.5,32.1,34.2,0000.0,0009.32,0006.01,0005.45
2022-07-27 06:41:00,,0830.1,4.99,0.00,31.8,27.5,00.0,39.5,32.1,34.3,0000.0,0009.48,0006.13,0005.56
2022-07-27 06:42:00,,0830.0,5.01,0.00,31.8,27.6,00.0,39.6,32.0,34.4,0000.0,0009.48,0006.23,0005.64
2022-07-27 06:43:00,,0829.9,4.99,0.00,31.8,27.8,00.0,39.6,32.0,34.2,0000.0,0009.55,0006.41,0005.78
2022-07-27 06:44:00,,0829.9,5.00,0.00,31.7,28.0,00.0,39.6,32.0,34.5,0000.0,0009.68,0006.54,0005.89
2022-07-27 06:45:00,,0829.9,5.02,0.00,31.7,28.1,00.0,39.7,32.0,34.4,0000.0,0009.85,0006.67,0006.02
2022-07-27 06:46:00,,0829.8,4.99,0.00,31.6,28.2,00.0,39.7,32.1,34.2,0000.0,0009.88,0006.78,0006.15
2022-07-27 06:47:00,,0829.9,5.01,0.00,31.6,28.3,00.0,39.7,32.1,34.3,0000.0,0010.14,0006.93,0006.27
2022-07-27 06:48:00,,0829.9,4.99,0.00,31.5,28.4,00.0,39.7,32.1,34.4,0000.0,0010.40,0007.04,0006.39
2022-07-27 06:49:00,,0829.8,5.01,0.00,31.5,28.5,00.0,39.7,32.1,34.3,0000.0,0010.57,0007.20,0006.53
2022-07-27 06:50:00,,0829.9,5.00,0.00,31.5,28.6,00.0,39.7,32.2,34.0,0000.0,0010.81,0007.38,0006.68
2022-07-27 06:51:00,,0829.8,5.01,0.00,31.4,28.6,00.0,39.8,32.2,34.5,0000.0,0010.97,0007.51,0006.80
2022-07-27 06:52:00,,0829.9,5.00,0.00,31.4,28.7,00.0,39.8,32.2,34.3,0000.0,0011.12,0007.62,0006.88
2022-07-27 06:53:00,,0829.9,5.00,0.00,31.4,28.8,00.0,39.8,32.2,33.8,0000.0,0011.24,0007.71,0006.98
2022-07-27 06:54:00,,0829.8,5.00,0.00,31.4,28.8,00.0,39.7,32.2,33.5,0000.0,0011.23,0007.73,0007.03
2022-07-27 06:55:00,,0829.8,5.01,0.00,31.3,28.9,00.0,39.7,32.3,33.5,0000.0,0011.28,0007.79,0007.10
2022-07-27 06:56:00,,0829.8,5.00,0.00,31.3,28.9,00.0,39.8,32.3,33.4,0000.0,0011.21,0007.80,0007.12
2022-07-27 06:57:00,,0829.8,5.00,0.00,31.3,28.9,00.0,39.8,32.3,32.7,0000.0,0011.14,0007.77,0007.11
2022-07-27 06:58:00,,0829.8,5.00,0.00,31.3,29.0,00.0,39.8,32.3,33.0,0000.0,0010.95,0007.70,0007.09
2022-07-27 06:59:00,,0829.8,5.00,0.00,31.2,29.0,00.0,39.7,32.4,33.2,0000.0,0010.74,0007.66,0007.08
